CYQBCYBC

Guest
Details From CYQB - Quebec Jean Lesage Intl
To CYBC - BAIE COMEAU
Flight Number -
Tags decoded
Created
Modified
Stats Distance 190 nm / 352 km
Max Altitude 0 ft / 0 m
Waypoints 2
Social Downloads 0
Likes 0
Share VATSIM

Download

Looking for another format? Having issues loading an existing format? Contact us
Advertisement - Login to hide

Notes

Requested: CYQB CYBC

Route

CYQB CYBC

ID Type Via Altitude Latitude Longitude Leg Dist Tot Dist Heading (true) Name
O CYQB APT - 0 ft / 0 m 46.78946˚ -71.39276˚ - 0 nm - Quebec Jean Lesage Intl
O CYBC APT - 0 ft / 0 m 49.13227˚ -68.20721˚ 190 nm 190 nm 41° / 44° BAIE COMEAU

Altitude Profile

Advertisement - Login to hide

Weather


0- 5 10 15 20 25 30 35+ Temperature / ° C

Clouds and Precipitation
Forecast for 2018-05-27 06:00 UTC. Updated an hour ago

Ground ~20,000 ft ~40,000 ft Winds

CYQB

Details ICAO CYQB (YQB)
Name Quebec Jean Lesage Intl
Region Canada
Timezone America/Montreal (UTC-4.0)
Stats Elevation 244 ft / 74 m (AMSL)
Location 46.789458° -71.392764°
Runways 2
Magnetic Variation 15.794° W

METAR

CYQB 270500Z 07008KT 15SM FEW270 11/01 A3012 RMK CI1 CI TR SLP203

Decode

TAF

TAF CYQB 262338Z 2700/2724 07010KT P6SM FEW210 BECMG 2710/2712 08010G20KT FM271900 12008KT P6SM SCT050 BKN180 FM272300 15008KT P6SM BKN050 OVC100 RMK NXT FCST BY 270600Z

Decode

Departure Runways

ID Width Length Bearing (true) Bearing (mag) Surface Threshold Offset Overrun Length
06 150 ft / 46 m 9,020 ft / 2,749 m 44.00° 59.79° Asphalt 0 ft / 0 m 0 ft / 0 m
12 150 ft / 46 m 5,678 ft / 1,731 m 97.58° 113.37° Asphalt 0 ft / 0 m 0 ft / 0 m
24 150 ft / 46 m 9,020 ft / 2,749 m 224.02° 239.81° Asphalt 0 ft / 0 m 0 ft / 0 m
30 150 ft / 46 m 5,678 ft / 1,731 m 277.60° 293.39° Asphalt 0 ft / 0 m 0 ft / 0 m

CYBC

Details ICAO CYBC (YBC)
Name BAIE COMEAU
Region Canada
Timezone America/Montreal (UTC-4.0)
Stats Elevation 71 ft / 22 m (AMSL)
Location 49.132270° -68.207207°
Runways 1
Magnetic Variation 17.786° W

METAR

CYBC 270600Z AUTO 36004KT 9SM CLR M01/M02 A3021 RMK SLP231

Decode

TAF

TAF CYBC 270138Z 2702/2714 VRB03KT P6SM SKC BECMG 2712/2714 09010KT RMK FCST BASED ON AUTO OBS. NXT FCST BY 270800Z

Decode

Destination Runways

ID Width Length Bearing (true) Bearing (mag) Surface Threshold Offset Overrun Length
10 150 ft / 46 m 5,984 ft / 1,824 m 80.50° 98.29° Asphalt 0 ft / 0 m 0 ft / 0 m
28 150 ft / 46 m 5,984 ft / 1,824 m 260.52° 278.31° Asphalt 0 ft / 0 m 0 ft / 0 m

Approach Navaids

Runway Type Ident Frequency Range Bearing (true) Bearing (mag) Slope Elevation
10 Localiser IBC 110.30 MHz 18 nm / 33 km 79.38° 97.16° - 66 ft / 20 m (AMSL)
10 Glidescope IBC 110.30 MHz 18 nm / 33 km 100.00° 117.79° 2.50° 69 ft / 21 m (AMSL)

Popular Alternatives